Simultaneous Nadir Overpasses (SNOs) Predictions

Prediction of SNOs between FY3D and LANDSAT-8 Satellite Orbit:

Table of predicted SNOs for the next 14.0 days since TLE Epoch: 6/8/2019
Index Date (FY3D) Time (FY3D) Lat,Lon (FY3D) SZA (FY3D ) Date (LANDSAT-8) Time (LANDSAT-8) Lat,Lon (LANDSAT-8) SZA (LANDSAT-8 ) Distance(km) Time Diff (sec)
1 06/09/2019 15:36:36 70.49, -57.27 47.47 06/09/2019 15:37:12 70.51, -57.32 47.49 3.18 36
2 06/09/2019 16:27:18 -70.41, 110.17 132.61 06/09/2019 16:26:42 -70.40, 110.15 132.62 1.47 36
3 06/12/2019 07:53:03 70.53, 58.54 47.33 06/12/2019 07:53:41 70.52, 58.57 47.31 1.75 38
4 06/12/2019 08:43:44 -70.40,-133.93 132.82 06/12/2019 08:43:11 -70.41,-133.95 132.80 1.86 33
5 06/15/2019 00:09:30 70.52, 174.44 47.17 06/15/2019 00:10:11 70.52, 174.46 47.17 0.82 41
6 06/15/2019 01:00:12 -70.44, -18.11 132.92 06/15/2019 00:59:41 -70.42, -18.06 132.94 2.43 31
7 06/17/2019 16:25:57 70.52, -69.67 47.07 06/17/2019 16:26:41 70.53, -69.65 47.08 1.19 44
8 06/17/2019 17:16:39 -70.42, 97.80 133.03 06/17/2019 17:16:11 -70.43, 97.83 133.03 1.10 28
9 06/20/2019 08:42:24 70.51, 46.23 47.02 06/20/2019 08:43:11 70.53, 46.23 47.03 1.68 47
10 06/20/2019 09:33:06 -70.41,-146.30 133.08 06/20/2019 09:32:41 -70.43,-146.29 133.07 1.65 25




NCC Satellite Simultaneous Nadir Overpasses (SNOs) Prediction Service
